CW2125 Weather Reports


time (UTC)temp
C
wind
direction
speed
KPH
gust
KPH
rain 1hr
cm
rain 24hr
cm
rain mn
cm
humidity
%
barometer
mb
20260509021514 8 209 3.2 6.4 0.00 0.00 0.00 59 1006.5
20260509020010 8 213 3.2 4.8 0.00 0.00 0.00 56 1006.5
20260509014507 8 216 4.8 6.4 0.00 0.00 0.00 56 1006.3
20260509013001 10 237 4.8 6.4 0.00 0.00 0.00 50 1006.2
20260509011604 11 238 0.0 4.8 0.00 0.00 0.00 46 1006.2
20260509010053 13 239 3.2 4.8 0.00 0.00 0.00 35 1006.1
20260509004549 15 239 4.8 8.0 0.00 0.00 0.00 30 1006.1
20260509003044 15 248 6.4 14.5 0.00 0.00 0.00 28 1006.0
20260509001541 16 266 8.0 12.9 0.00 0.00 0.00 28 1006.0
20260509000035 15 253 8.0 14.5 0.00 0.00 0.00 28 1006.0
20260508234532 16 245 6.4 16.1 0.00 0.00 0.00 28 1005.9
20260508233026 17 246 9.7 19.3 0.00 0.00 0.00 25 1005.8
20260508231522 17 263 12.9 22.5 0.00 0.00 0.00 24 1005.8
20260508230017 17 259 11.3 17.7 0.00 0.00 0.00 25 1005.7
20260508224515 17 277 17.7 25.7 0.00 0.00 0.00 23 1005.8
20260508223019 17 264 11.3 20.9 0.00 0.00 0.00 26 1005.8
20260508221504 17 283 17.7 27.4 0.00 0.00 0.00 24 1005.9
20260508220103 17 244 12.9 27.4 0.00 0.00 0.00 24 1005.9
20260508214636 17 296 22.5 30.6 0.00 0.00 0.00 24 1005.9
20260508213052 17 284 19.3 29.0 0.00 0.00 0.00 24 1006.1
20260508211547 17 276 11.3 22.5 0.00 0.00 0.00 25 1006.2
20260508210042 17 229 11.3 22.5 0.00 0.00 0.00 27 1006.2
20260508204538 17 277 14.5 29.0 0.00 0.00 0.00 28 1006.5
20260508203033 17 259 9.7 24.1 0.00 0.00 0.00 28 1006.7
20260508201529 17 205 11.3 27.4 0.00 0.00 0.00 28 1007.0
20260508200027 16 226 14.5 25.7 0.00 0.00 0.00 28 1007.2
20260508194520 17 265 17.7 25.7 0.00 0.00 0.00 29 1007.5
20260508193016 16 232 14.5 25.7 0.00 0.00 0.00 29 1007.6
20260508191529 16 237 11.3 20.9 0.00 0.00 0.00 30 1008.0
20260508190008 16 234 12.9 24.1 0.00 0.00 0.00 31 1008.2
20260508184503 15 208 6.4 14.5 0.00 0.00 0.00 31 1008.4
20260508183105 16 223 17.7 25.7 0.00 0.00 0.00 30 1008.6
20260508181555 15 229 14.5 27.4 0.00 0.00 0.00 30 1008.8
20260508180058 15 277 16.1 22.5 0.00 0.00 0.00 32 1008.9
20260508174548 15 230 12.9 25.7 0.00 0.00 0.00 33 1009.2
20260508173040 15 223 8.0 24.1 0.00 0.00 0.00 30 1009.5
20260508171538 15 234 9.7 20.9 0.00 0.00 0.00 30 1009.6
20260508170032 15 196 11.3 24.1 0.00 0.00 0.00 31 1009.8
20260508164530 15 283 3.2 22.5 0.00 0.00 0.00 32 1010.1
20260508163023 14 184 11.3 20.9 0.00 0.00 0.00 33 1010.1
20260508161518 14 236 12.9 20.9 0.00 0.00 0.00 33 1010.4
20260508160017 13 222 12.9 22.5 0.00 0.00 0.00 34 1010.4
20260508154510 13 240 11.3 19.3 0.00 0.00 0.00 35 1010.6
20260508153005 13 270 8.0 16.1 0.00 0.00 0.00 37 1010.5
20260508151503 12 234 8.0 14.5 0.00 0.00 0.00 40 1010.6
20260508150057 12 200 9.7 19.3 0.00 0.00 0.00 40 1010.7
20260508144555 12 229 9.7 19.3 0.00 0.00 0.00 43 1011.0
20260508143053 12 173 6.4 16.1 0.00 0.00 0.00 47 1011.0
20260508141544 11 203 8.0 17.7 0.00 0.00 0.00 50 1011.1
20260508140040 11 217 9.7 14.5 0.00 0.00 0.00 54 1011.1
20260508134536 10 182 9.7 16.1 0.00 0.00 0.00 57 1011.3
20260508133030 10 181 8.0 14.5 0.00 0.00 0.00 59 1011.4
20260508131525 9 195 8.0 11.3 0.00 0.00 0.00 61 1011.5
20260508130022 8 167 8.0 11.3 0.00 0.00 0.00 65 1011.5
20260508124516 8 166 8.0 12.9 0.00 0.00 0.00 67 1011.5
20260508123012 7 190 8.0 11.3 0.00 0.00 0.00 61 1011.5
20260508121508 6 169 4.8 9.7 0.00 0.00 0.00 42 1011.3
20260508120007 5 142 4.8 8.0 0.00 0.00 0.00 15 1011.4
20260508114609 5 123 3.2 6.4 0.00 0.00 0.00 100 1011.0
20260508113103 3 76 0.0 0.0 0.00 0.00 0.00 100 1011.0
20260508111601 2 75 0.0 1.6 0.00 0.00 0.00 100 1010.8
20260508110045 1 75 0.0 1.6 0.00 0.00 0.00 100 1010.8
20260508104542 1 75 0.0 0.0 0.00 0.00 0.00 100 1010.8
20260508103038 1 101 0.0 0.0 0.00 0.00 0.00 100 1010.8
20260508101532 1 98 0.0 0.0 0.00 0.00 0.00 100 1010.8
20260508100030 1 98 0.0 3.2 0.00 0.00 0.00 3 1010.8
20260508094523 1 98 0.0 3.2 0.00 0.00 0.00 100 1010.8
20260508093019 1 98 0.0 0.0 0.00 0.00 0.00 7 1010.8
20260508091514 2 98 0.0 0.0 0.00 0.00 0.00 3 1010.9
20260508090010 2 98 0.0 0.0 0.00 0.00 0.00 100 1011.0
20260508084506 2 98 0.0 0.0 0.00 0.00 0.00 6 1011.0
20260508083001 2 98 0.0 3.2 0.00 0.00 0.00 16 1011.0
20260508081605 2 98 1.6 4.8 0.00 0.00 0.00 8 1011.1
20260508080100 2 98 0.0 0.0 0.00 0.00 0.00 34 1011.1
20260508074549 3 98 0.0 0.0 0.00 0.00 0.00 33 1011.1
20260508073049 4 98 0.0 0.0 0.00 0.00 0.00 35 1011.1
20260508071541 5 98 0.0 0.0 0.00 0.00 0.00 35 1011.1
20260508070039 5 98 0.0 0.0 0.00 0.00 0.00 37 1011.1
20260508064539 5 98 0.0 0.0 0.00 0.00 0.00 43 1011.1
20260508063035 6 98 3.2 4.8 0.00 0.00 0.00 45 1011.2
20260508061533 6 98 0.0 4.8 0.00 0.00 0.00 46 1011.3
20260508060032 6 84 1.6 4.8 0.00 0.00 0.00 34 1011.3
20260508054531 6 62 3.2 4.8 0.00 0.00 0.00 37 1011.4
20260508053032 6 61 0.0 0.0 0.00 0.00 0.00 37 1011.6
20260508051534 6 61 0.0 3.2 0.00 0.00 0.00 37 1011.5
20260508050031 6 61 0.0 0.0 0.00 0.00 0.00 37 1011.5
20260508044525 6 61 0.0 0.0 0.00 0.00 0.00 46 1011.4
20260508043023 6 61 0.0 0.0 0.00 0.00 0.00 52 1011.3
20260508041520 6 61 0.0 0.0 0.00 0.00 0.00 51 1011.3
20260508040018 6 61 0.0 0.0 0.00 0.00 0.00 53 1011.4
20260508034515 6 30 0.0 3.2 0.00 0.00 0.00 51 1011.4
20260508033010 6 28 0.0 0.0 0.00 0.00 0.00 60 1011.3
20260508031505 6 28 0.0 0.0 0.00 0.00 0.00 63 1011.4
20260508030002 6 28 0.0 0.0 0.00 0.00 0.00 65 1011.4
20260508024605 6 28 0.0 0.0 0.00 0.00 0.00 68 1011.4
20260508023055 7 28 0.0 0.0 0.00 0.00 0.00 68 1011.3